Temperature
18 18 17 18 18 17 17 17 17 17 16 16 16 16 16 16 16 16 16 16 15 15 15 15 15 15 15 15 15 15 15 15 15 15 15 15 14 14
17 17 17 17 17 17 17 17 17 17 16 16 16 16 16 16 16 16 15 15 15 15 15 15 15 15 15 15 15 15 14 14 14 14 14 14 14 14
17 17 17 17 17 17 17 16 16 16 16 16 16 16 15 15 15 15 15 15 15 15 15 15 15 15 14 14 14 14 14 14 14 14 14 14 14 14
17 17 17 16 16 16 16 16 16 16 16 15 15 15 15 15 15 15 15 15 15 15 15 15 14 14 14 14 14 14 14 14 14 14 14 14 14 14
16 16 16 16 16 16 16 16 16 16 16 15 15 15 15 15 15 15 14 14 15 14 14 14 14 14 14 14 14 14 14 14 14 14 14 14 14 14
16 16 16 16 16 15 15 15 15 15 15 15 15 15 14 14 14 14 14 14 14 14 14 14 14 14 14 14 14 14 14 14 14 13 13 13 13 13
16 15 15 15 15 15 15 15 15 15 15 14 14 14 14 14 14 14 14 14 14 14 14 14 14 14 14 14 14 14 14 14 14 13 13 13 13 13
15 15 15 15 15 15 15 15 15 14 14 14 14 14 14 14 14 14 14 14 14 14 14 14 14 14 14 14 14 14 14 14 13 13 13 13 13 13
15 15 15 15 15 15 15 14 14 14 14 14 14 14 14 14 13 14 13 13 14 14 13 14 14 14 14 14 14 14 14 13 13 13 13 13 13 13
15 15 15 15 15 15 14 14 14 14 14 14 14 14 13 13 13 13 13 13 13 13 14 13 14 14 14 14 14 14 13 13 13 13 13 13 13 13
15 15 15 15 14 14 14 14 14 14 14 13 13 13 13 13 13 13 13 13 13 13 13 13 13 13 13 13 14 13 13 13 13 13 13 13 13 12
15 14 14 14 14 14 14 14 13 13 13 13 13 13 13 13 13 13 13 13 13 13 13 13 13 13 13 13 13 13 13 13 13 13 13 13 12 12
14 14 14 14 14 14 14 13 13 13 13 13 13 13 13 13 13 13 13 12 12 12 13 13 13 12 12 13 13 13 13 13 13 13 13 12 12 12
14 14 14 14 14 14 13 13 13 13 13 13 13 13 13 13 12 12 12 12 12 12 12 12 12 12 12 12 12 13 13 13 13 13 12 12 12 12
13 13 13 13 13 13 13 13 13 13 12 12 12 12 12 12 12 12 12 12 12 12 12 12 12 12 12 12 12 12 12 12 12 12 12 12 12 12
13 13 13 13 13 13 13 13 12 12 12 12 12 12 12 12 12 12 12 12 12 12 12 12 12 12 12 12 12 12 12 12 12 12 12 12 12 12
13 13 13 13 13 13 13 12 12 12 12 12 12 12 12 12 12 12 12 12 12 12 12 12 12 12 12 12 12 12 12 12 12 12 12 11 12 12
13 12 12 12 12 12 12 12 12 12 12 11 11 12 12 12 12 12 12 12 11 11 11 11 11 11 12 12 12 12 12 12 12 12 12 11 11 11
12 12 12 12 12 12 12 12 12 12 11 11 11 11 11 11 11 11 11 11 11 11 11 11 11 11 11 11 11 12 11 11 11 11 11 11 11 11
12 12 12 12 12 12 12 12 11 11 11 11 11 11 11 11 11 11 11 11 11 11 11 11 11 11 11 11 11 11 11 11 11 11 11 11 11 11
12 12 12 12 12 12 11 11 11 11 11 11 11 10 10 10 10 11 11 11 11 11 11 11 11 11 11 11 11 11 11 11 11 11 11 11 11 11
12 11 11 11 11 11 11 11 11 11 11 10 10 10 10 10 10 10 10 10 11 11 11 11 11 11 11 11 11 11 11 11 11 11 11 11 11 11
11 11 11 11 11 11 11 11 10 10 10 10 10 10 10 10 10 10 10 10 10 10 10 11 11 11 11 11 11 11 11 11 11 11 11 11 11 11
Wind_Speed
2 1 2 2 2 2 0 0 1 1 1 1 0 1 2 3 5 7 6 8 8 7 7 7 7 7 6 6 6 6 5 5 5 4 4 4 4 5
1 1 2 2 2 1 1 1 1 1 1 1 0 1 1 1 4 4 5 8 9 9 9 8 8 7 7 6 6 6 6 5 5 5 5 4 4 4
2 1 1 2 2 2 1 1 1 0 1 1 0 0 0 0 2 4 5 7 7 10 10 10 9 9 8 8 7 7 7 7 6 6 6 5 5 4
1 1 1 1 1 2 2 1 1 1 1 1 1 1 1 1 2 3 4 5 6 9 12 12 11 11 10 10 9 9 8 8 8 7 6 6 6 5
1 1 1 1 1 1 2 2 2 2 1 1 2 1 1 2 1 3 3 2 5 7 12 13 13 13 12 11 10 10 9 9 8 7 7 6 6 5
2 2 2 1 0 2 2 2 3 2 2 1 2 2 1 1 1 2 2 2 3 4 5 9 12 14 13 12 11 11 10 10 9 9 8 7 7 6
3 2 2 1 1 1 2 2 2 2 2 2 2 2 1 1 2 2 2 2 3 3 2 4 6 7 9 10 11 11 11 11 11 10 10 9 8 8
3 2 2 3 2 2 2 3 3 3 2 2 2 3 2 2 2 3 2 2 3 2 2 3 4 4 5 8 11 13 13 12 12 12 11 10 10 9
3 3 4 3 2 2 4 4 4 4 4 4 3 4 4 3 3 4 4 4 4 3 2 4 3 4 5 8 13 14 14 14 13 13 12 11 11 11
4 4 3 3 3 2 3 2 3 3 4 3 4 5 4 3 4 5 5 4 4 3 2 3 3 3 3 5 11 15 15 15 14 13 12 12 11 11
4 3 3 3 1 1 2 3 3 3 4 3 4 4 4 4 3 2 3 3 4 3 2 2 3 2 3 3 7 13 14 15 14 13 13 12 11 9
2 2 2 2 1 1 2 3 3 3 3 4 4 4 4 4 5 4 3 3 3 3 1 1 2 2 2 2 3 6 8 11 14 13 13 13 12 7
2 1 1 2 1 2 3 3 4 4 4 4 4 3 3 2 3 3 3 3 3 3 2 1 2 2 2 2 2 3 5 5 7 9 12 13 13 10
3 1 1 2 2 4 4 5 6 5 4 3 2 2 2 2 2 3 3 3 3 3 2 1 2 2 3 3 2 2 3 3 4 4 6 9 11 13
2 2 1 3 4 4 5 6 5 4 3 3 2 2 2 2 2 2 2 3 4 4 4 3 3 3 3 3 3 2 2 3 3 3 4 4 4 6
1 1 3 5 5 4 3 4 4 4 3 3 3 3 2 2 2 2 2 2 2 2 3 4 4 3 3 3 3 3 2 2 3 3 3 3 4 6
1 2 3 3 2 3 3 3 3 3 3 3 2 3 2 2 2 1 2 2 2 2 2 2 4 4 3 3 3 3 2 2 2 3 3 3 3 4
2 4 4 4 3 3 3 3 3 2 2 2 2 2 3 2 2 2 2 2 2 2 2 2 1 1 2 2 3 3 3 2 2 2 2 3 3 3
3 5 4 4 4 4 3 3 3 2 2 3 3 3 3 3 2 2 2 2 2 3 2 2 1 2 2 3 3 2 2 2 2 2 2 2 3 2
5 5 4 4 3 3 3 2 2 2 2 3 3 3 3 3 2 3 2 3 3 3 3 2 2 3 4 3 3 2 3 3 2 3 2 2 1 1
4 4 4 4 3 2 1 1 2 2 2 3 3 3 3 3 3 3 3 4 4 4 3 3 4 5 4 2 3 2 2 3 3 3 3 2 2 2
4 3 3 2 2 2 1 1 2 3 3 3 3 3 3 3 4 4 3 3 3 3 4 3 3 3 3 4 4 3 2 2 1 2 2 3 3 3
3 3 2 2 2 2 2 3 3 3 3 3 3 3 3 3 3 4 4 3 3 4 3 3 3 3 3 4 4 3 3 2 2 1 1 2 3 4
Wind_Direction
291 300 298 308 312 321 7 227 237 278 298 253 184 183 150 159 157 169 170 178 183 186 193 198 203 205 203 204 205 203 204 208 210 213 219 232 240 241
292 323 311 307 315 337 345 310 307 216 254 284 277 174 154 158 162 178 185 185 190 193 199 202 205 207 206 206 209 208 208 212 216 218 222 227 235 237
285 304 313 329 339 334 344 333 336 2 236 294 339 320 1 88 160 194 199 188 191 201 206 207 210 212 211 213 216 217 217 218 220 220 221 224 229 230
275 288 294 309 335 339 341 330 323 302 188 246 260 244 257 224 206 223 215 208 200 208 206 207 210 212 213 216 219 221 221 220 221 220 220 224 227 228
246 255 271 287 327 338 322 323 316 314 280 234 252 249 255 243 233 251 235 215 228 215 206 209 210 211 211 214 218 222 221 219 218 218 219 224 230 233
267 259 257 256 288 289 287 308 307 306 290 253 250 256 250 256 238 249 258 244 247 238 211 207 208 212 212 212 217 221 221 218 218 219 219 224 226 226
244 255 254 128 45 304 282 296 294 286 283 275 267 281 279 300 273 267 268 264 255 243 238 216 196 203 207 212 217 217 214 214 217 219 220 222 224 223
242 242 226 196 208 240 261 271 256 251 264 278 277 282 280 286 286 279 281 281 271 230 226 241 205 206 199 197 205 207 208 209 214 218 220 221 222 223
234 241 255 247 200 234 250 250 257 255 238 247 268 278 277 271 268 274 270 270 266 261 255 252 225 218 206 208 201 202 205 208 209 212 216 218 219 220
235 233 234 246 239 256 272 266 260 266 254 238 243 259 267 262 255 256 262 264 263 257 233 248 242 234 226 196 198 200 205 208 210 212 215 216 217 220
238 229 218 219 178 262 261 268 275 274 274 263 253 250 245 253 260 271 272 271 277 268 243 241 253 254 236 216 205 206 208 209 210 213 217 220 221 222
244 224 160 149 153 290 275 278 279 284 292 284 270 262 249 246 237 228 252 273 282 275 261 256 264 272 267 218 193 196 208 213 212 215 220 222 218 214
279 251 169 151 193 252 270 267 267 283 282 274 264 247 245 242 234 224 235 252 262 270 293 300 283 276 261 261 235 213 207 202 206 216 218 219 214 205
296 299 184 200 242 257 258 257 268 280 274 273 279 276 267 256 253 239 227 232 235 236 250 255 256 263 268 271 267 225 214 205 201 205 202 208 213 214
314 1 282 246 262 257 245 245 253 257 261 262 265 270 268 253 253 253 238 228 239 234 232 231 240 250 251 253 259 250 230 223 206 202 200 192 197 196
291 313 283 262 254 253 252 244 239 248 246 252 260 264 265 260 254 252 253 247 259 266 240 217 224 234 252 251 241 245 242 224 211 202 202 203 202 199
271 262 262 255 237 232 242 243 239 245 259 270 278 283 282 282 283 291 280 264 261 265 265 258 236 230 229 248 247 244 236 244 232 204 207 218 220 207
228 253 254 251 246 242 242 238 243 249 254 268 272 276 282 282 282 291 300 285 270 269 264 254 251 271 267 271 241 239 237 241 251 226 222 230 231 216
233 248 251 250 248 247 240 238 244 249 255 260 264 267 272 278 281 286 283 284 274 268 267 242 219 237 260 273 262 233 228 235 241 242 232 236 235 225
238 252 256 251 248 253 256 253 247 247 249 260 265 270 271 270 270 269 264 269 277 273 264 244 222 222 237 254 267 276 258 232 216 226 239 232 209 189
253 257 265 265 259 257 270 272 261 252 252 255 257 258 264 268 265 262 260 261 263 264 259 244 234 228 235 243 253 251 240 226 212 215 218 213 219 212
261 264 259 260 269 266 264 263 269 264 257 253 253 253 251 253 259 259 260 264 260 263 267 262 235 228 233 238 248 243 232 210 224 250 247 235 213 215
269 283 277 261 247 235 234 242 253 259 257 262 263 259 256 259 261 257 261 265 265 267 274 277 269 248 245 243 244 230 222 217 213 217 289 265 212 205
Height
1525 1525 1525 1525 1526 1526 1526 1526 1527 1526 1526 1526 1526 1526 1525 1524 1523 1523 1523 1523 1523 1522 1522 1522 1522 1522 1523 1523 1523 1524 1525 1526 1527 1527 1528 1529 1529 1530
1524 1524 1523 1524 1524 1524 1524 1524 1524 1524 1524 1524 1524 1524 1523 1522 1522 1521 1521 1521 1521 1521 1521 1520 1520 1520 1520 1521 1521 1522 1523 1524 1524 1525 1526 1526 1527 1527
1522 1522 1522 1522 1522 1522 1522 1522 1522 1522 1521 1521 1521 1521 1521 1520 1520 1519 1519 1519 1519 1519 1518 1518 1518 1518 1518 1519 1519 1520 1521 1521 1522 1523 1523 1524 1524 1525
1520 1520 1520 1520 1520 1520 1520 1520 1520 1520 1520 1519 1518 1519 1518 1518 1518 1517 1517 1517 1517 1516 1516 1516 1516 1516 1516 1517 1517 1518 1518 1519 1519 1520 1521 1521 1522 1522
1517 1517 1517 1518 1518 1518 1517 1517 1517 1518 1517 1517 1516 1516 1516 1516 1515 1515 1515 1515 1514 1514 1514 1514 1514 1514 1514 1515 1515 1515 1515 1516 1517 1517 1518 1519 1519 1520
1516 1515 1515 1515 1515 1515 1515 1515 1515 1515 1515 1515 1514 1514 1513 1513 1513 1512 1512 1512 1512 1512 1511 1511 1512 1512 1512 1512 1512 1512 1512 1513 1514 1514 1515 1516 1517 1517
1513 1513 1513 1513 1512 1512 1512 1511 1511 1512 1512 1512 1511 1511 1510 1510 1510 1510 1509 1509 1509 1509 1509 1509 1509 1509 1509 1509 1509 1509 1510 1510 1511 1512 1512 1513 1514 1514
1511 1511 1511 1510 1510 1510 1509 1509 1508 1509 1509 1509 1508 1508 1508 1508 1507 1507 1507 1507 1506 1506 1506 1506 1506 1506 1506 1506 1506 1507 1507 1508 1508 1509 1509 1510 1511 1511
1508 1508 1508 1508 1507 1507 1507 1506 1506 1506 1506 1506 1505 1505 1505 1505 1505 1504 1504 1504 1503 1503 1503 1502 1503 1503 1503 1503 1503 1504 1504 1505 1505 1506 1506 1507 1507 1508
1505 1505 1505 1505 1504 1504 1504 1503 1502 1502 1502 1502 1502 1502 1502 1502 1502 1501 1501 1500 1500 1500 1500 1499 1499 1499 1500 1500 1500 1501 1501 1502 1502 1502 1503 1503 1504 1505
1502 1502 1502 1502 1502 1502 1501 1500 1499 1499 1499 1499 1499 1499 1499 1499 1499 1498 1498 1498 1497 1497 1497 1497 1496 1496 1497 1497 1497 1498 1498 1499 1499 1499 1500 1500 1501 1502
1500 1500 1500 1500 1499 1499 1498 1497 1496 1496 1496 1495 1495 1495 1495 1495 1495 1495 1495 1495 1494 1494 1494 1494 1493 1494 1494 1494 1494 1495 1495 1495 1496 1496 1497 1497 1498 1499
1497 1497 1497 1496 1496 1496 1495 1495 1494 1494 1493 1493 1492 1492 1492 1492 1492 1492 1492 1492 1491 1491 1491 1491 1490 1491 1491 1491 1491 1491 1492 1492 1492 1493 1494 1495 1495 1496
1494 1494 1493 1493 1493 1493 1492 1492 1491 1491 1491 1491 1490 1489 1489 1489 1489 1489 1489 1489 1488 1488 1488 1488 1487 1487 1488 1488 1488 1488 1488 1489 1490 1490 1491 1491 1492 1493
1491 1491 1491 1490 1490 1490 1490 1489 1489 1488 1489 1488 1487 1487 1487 1487 1487 1487 1487 1486 1486 1485 1485 1484 1484 1484 1485 1485 1485 1485 1486 1486 1487 1487 1487 1488 1488 1489
1487 1487 1488 1487 1487 1487 1487 1486 1486 1486 1486 1486 1485 1485 1485 1485 1484 1484 1483 1483 1482 1482 1482 1482 1482 1482 1482 1482 1483 1483 1483 1483 1483 1484 1484 1484 1485 1485
1484 1484 1484 1484 1484 1484 1484 1484 1483 1483 1483 1483 1483 1483 1483 1482 1482 1482 1481 1480 1480 1480 1479 1479 1479 1479 1479 1480 1480 1480 1480 1480 1481 1481 1481 1481 1481 1482
1481 1481 1481 1481 1481 1481 1481 1481 1481 1480 1480 1480 1480 1480 1480 1480 1479 1479 1479 1478 1478 1477 1477 1476 1476 1476 1477 1477 1478 1477 1477 1477 1478 1478 1478 1478 1478 1479
1478 1478 1478 1478 1478 1478 1478 1478 1477 1477 1478 1478 1477 1477 1477 1477 1477 1476 1476 1475 1475 1474 1474 1474 1474 1474 1474 1473 1474 1475 1475 1474 1475 1475 1475 1476 1475 1476
1475 1475 1475 1475 1475 1475 1475 1475 1475 1474 1474 1474 1474 1474 1474 1474 1473 1473 1473 1473 1472 1472 1471 1471 1471 1471 1471 1471 1471 1471 1472 1472 1471 1472 1472 1472 1472 1473
1472 1472 1472 1472 1472 1472 1472 1471 1471 1471 1471 1471 1471 1471 1471 1471 1470 1470 1470 1470 1470 1469 1468 1468 1468 1468 1468 1469 1469 1468 1468 1469 1469 1469 1469 1469 1469 1470
1469 1469 1469 1469 1468 1468 1468 1468 1467 1467 1467 1467 1467 1467 1467 1468 1468 1467 1467 1467 1466 1466 1466 1465 1466 1466 1466 1466 1465 1465 1465 1466 1466 1466 1466 1467 1467 1467
1465 1465 1465 1465 1465 1465 1465 1464 1464 1464 1464 1463 1463 1463 1464 1464 1464 1464 1464 1464 1463 1463 1463 1463 1463 1463 1463 1463 1463 1463 1463 1463 1463 1463 1463 1464 1464 1464